TimePDT,TemperatureF,Dew PointF,Humidity,Sea Level PressureIn,VisibilityMPH,Wind Direction,Wind SpeedMPH,Gust SpeedMPH,PrecipitationIn,Events,Conditions,WindDirDegrees,DateUTC
12:13 AM,57.2,53.6,88,30.01,2.0,North,4.6,-,N/A,,Overcast,10,2013-09-10 07:13:00
12:41 AM,57.2,53.6,88,30.01,1.2,NNW,5.8,-,N/A,,Overcast,340,2013-09-10 07:41:00
12:53 AM,57.0,54.0,89,30.01,1.0,North,5.8,-,N/A,,Overcast,350,2013-09-10 07:53:00
1:15 AM,57.2,53.6,88,30.01,1.8,NNW,4.6,-,N/A,,Overcast,340,2013-09-10 08:15:00
1:26 AM,57.2,53.6,88,30.01,0.8,NNW,6.9,-,N/A,,Overcast,340,2013-09-10 08:26:00
1:53 AM,57.0,54.0,89,30.01,0.5,North,5.8,-,N/A,Fog,Fog,350,2013-09-10 08:53:00
2:14 AM,57.2,53.6,88,30.00,0.2,North,4.6,-,N/A,Fog,Fog,360,2013-09-10 09:14:00
2:48 AM,57.2,53.6,88,30.00,0.5,NNW,3.5,-,N/A,Fog,Fog,340,2013-09-10 09:48:00
2:53 AM,57.0,54.0,89,30.00,0.5,North,3.5,-,N/A,Fog,Fog,350,2013-09-10 09:53:00
3:29 AM,57.2,53.6,88,29.99,1.0,North,4.6,-,N/A,,Mist,350,2013-09-10 10:29:00
3:36 AM,57.2,53.6,88,29.99,0.5,North,3.5,-,N/A,Fog,Fog,360,2013-09-10 10:36:00
3:53 AM,57.0,54.0,89,29.99,0.5,Calm,Calm,-,N/A,Fog,Fog,0,2013-09-10 10:53:00
4:23 AM,55.4,53.6,94,29.99,0.2,North,4.6,-,N/A,Fog,Fog,350,2013-09-10 11:23:00
4:35 AM,55.4,53.6,94,29.99,0.5,Calm,Calm,-,N/A,Fog,Fog,0,2013-09-10 11:35:00
4:46 AM,55.4,53.6,94,29.98,0.2,Calm,Calm,-,N/A,Fog,Fog,0,2013-09-10 11:46:00
4:53 AM,55.9,53.1,90,29.99,0.2,Calm,Calm,-,N/A,Fog,Fog,0,2013-09-10 11:53:00
5:53 AM,55.9,53.1,90,29.99,0.2,Calm,Calm,-,N/A,Fog,Fog,0,2013-09-10 12:53:00
6:50 AM,53.6,51.8,94,29.98,0.2,Calm,Calm,-,N/A,Fog,Fog,0,2013-09-10 13:50:00
6:53 AM,54.0,51.1,90,29.99,0.2,Calm,Calm,-,N/A,Fog,Fog,0,2013-09-10 13:53:00
7:15 AM,53.6,50.0,88,29.99,0.8,Calm,Calm,-,N/A,,Mist,0,2013-09-10 14:15:00
7:27 AM,53.6,50.0,88,29.99,1.0,Calm,Calm,-,N/A,,Mist,0,2013-09-10 14:27:00
7:39 AM,53.6,51.8,94,29.99,1.0,Calm,Calm,-,N/A,,Clear,0,2013-09-10 14:39:00
7:53 AM,55.0,51.1,86,29.99,1.8,Calm,Calm,-,N/A,,Clear,0,2013-09-10 14:53:00
8:02 AM,55.4,51.8,88,29.98,2.5,Calm,Calm,-,N/A,,Clear,0,2013-09-10 15:02:00
8:13 AM,57.2,51.8,82,29.98,3.0,Calm,Calm,-,N/A,,Haze,0,2013-09-10 15:13:00
8:53 AM,60.1,53.1,78,29.98,10.0,Calm,Calm,-,N/A,,Clear,0,2013-09-10 15:53:00
9:53 AM,68.0,55.9,65,29.97,9.0,Calm,Calm,-,N/A,,Clear,0,2013-09-10 16:53:00
10:53 AM,75.0,57.0,53,29.97,9.0,Calm,Calm,-,N/A,,Clear,0,2013-09-10 17:53:00
11:53 AM,73.9,57.9,57,29.96,9.0,WSW,5.8,-,N/A,,Clear,240,2013-09-10 18:53:00
12:53 PM,75.9,59.0,56,29.95,9.0,WSW,6.9,-,N/A,,Clear,240,2013-09-10 19:53:00
1:53 PM,78.1,59.0,52,29.93,9.0,SW,8.1,-,N/A,,Clear,230,2013-09-10 20:53:00
2:53 PM,79.0,57.9,48,29.92,9.0,WSW,6.9,-,N/A,,Clear,240,2013-09-10 21:53:00
3:53 PM,79.0,59.0,50,29.89,9.0,WSW,3.5,-,N/A,,Clear,250,2013-09-10 22:53:00
4:53 PM,82.0,62.1,51,29.88,9.0,SW,3.5,-,N/A,,Clear,220,2013-09-10 23:53:00
5:53 PM,86.0,50.0,29,29.88,10.0,NNE,4.6,-,N/A,,Clear,30,2013-09-11 00:53:00
6:53 PM,82.0,52.0,35,29.86,9.0,North,6.9,-,N/A,,Clear,10,2013-09-11 01:53:00
7:53 PM,75.0,53.1,46,29.86,9.0,NE,6.9,-,N/A,,Clear,40,2013-09-11 02:53:00
8:53 PM,72.0,54.0,53,29.87,10.0,ENE,4.6,-,N/A,,Clear,60,2013-09-11 03:53:00
9:53 PM,68.0,54.0,61,29.87,9.0,Calm,Calm,-,N/A,,Clear,0,2013-09-11 04:53:00
10:53 PM,66.9,55.0,66,29.87,9.0,Calm,Calm,-,N/A,,Clear,0,2013-09-11 05:53:00
11:53 PM,66.9,55.0,66,29.87,9.0,East,4.6,-,N/A,,Clear,90,2013-09-11 06:53:00